551  
NZUS01 KOTX 221825  
RWROTX  
 
EASTERN WASHINGTON/NORTHERN IDAHO ROUNDUP  
NATIONAL WEATHER SERVICE, SPOKANE WA  
1100 AM PDT SAT JUL 22 2017  
 
NOTE: "FAIR" INDICATED FEW OR NO CLOUDS BELOW 12,000 FEET WITH NO  
SIGNIFICANT WEATHER AND/OR S TO VISIBILITY
.  
   
..NORTHEAST WASHINGTON AND NORTHERN IDAHO PANHANDLE
 
 
 
CITY SKY/WX TMP DP RH WIND PRES REMARKS
 
SPOKANE INTL MOSUNNY 79 40 24 SW10 30.18F  
SPOKANE DOWNTO SUNNY 81 41 24 SW9 30.17F  
COEUR D ALENE SUNNY 77 43 29 SE7 30.20S  
DEER PARK SUNNY 77 42 28 S8 30.18F  
SANDPOINT SUNNY 79 45 29 S9G16 30.17S  
BONNERS FERRY FAIR 75 48 38 SE5 30.16S  
   
..SOUTHEAST WASHINGTON AND SOUTHERN IDAHO PANHANDLE
 
 
 
CITY SKY/WX TMP DP RH WIND PRES REMARKS
 
WALLA WALLA SUNNY 81 45 28 VRB5 30.14F  
PULLMAN/MOSCOW SUNNY 77 39 25 VRB3 30.22F  
LEWISTON SUNNY 80 43 26 CALM 30.17F  
LOWELL N/A 76 43 30 CALM 30.16F  
GRANGEVILLE FAIR 75 37 25 N5 30.24S  
   
..COLUMBIA BASIN
 
 
 
CITY SKY/WX TMP DP RH WIND PRES REMARKS
 
EPHRATA SUNNY 82 43 25 S7 30.12F  
MOSES LAKE SUNNY 82 48 30 SW6 30.13F  
PASCO SUNNY 83 48 29 VRB3 30.12F  
RICHLAND CLEAR 85 51 30 CALM 30.11F  
HERMISTON SUNNY 82 49 31 W6 30.12F  
PENDLETON SUNNY 82 40 22 VRB6 30.15F  
   
..EAST SLOPES CASCADES
 
 
 
CITY SKY/WX TMP DP RH WIND PRES REMARKS
 
THE DALLES SUNNY 85 56 37 NW12 30.10F  
YAKIMA SUNNY 84 51 31 CALM 30.14S  
ELLENSBURG SUNNY 82 57 42 NW17G24 30.14S  
STAMPEDE PASS MOSUNNY 65 55 70 VRB3 30.29S  
WENATCHEE SUNNY 80 52 37 W7 30.12F  
OMAK SUNNY 79 43 27 CALM 30.12F  
CHELAN N/A 81 52 36 E5 N/A  
SUNNYSIDE N/A 77 51 41 CALM 30.13S  
   
..SOUTHERN BRITISH COLUMBIA
 
 
 
CITY SKY/WX TMP DP RH WIND PRES REMARKS
 
PENTICTON PTSUNNY 75 52 43 E5 30.11F  
CASTLEGAR PTSUNNY 72 48 43 N6 30.15F  
CRANBROOK PTSUNNY 77 43 29 E6 30.14F  
OSOYOOS N/A 73 48 40 SW3 N/A  
CRESTON N/A 77 52 41 W2 N/A  
   
..WESTERN MONTANA
 
 
 
CITY SKY/WX TMP DP RH WIND PRES REMARKS
 
KALISPELL CLEAR 77 42 28 S10 30.18F  
LIBBY N/A 79 41 25 CALM 30.15F  
MISSOULA SUNNY 77 37 23 CALM 30.21F  
   
..NEIGHBORING CITIES
 
 
 
CITY SKY/WX TMP DP RH WIND PRES REMARKS
 
SEATTLE MOSUNNY 73 56 54 S7 30.19F  
PORTLAND MOSUNNY 75 57 53 VRB5 30.16F  
BOISE SUNNY 81 43 26 NW8 30.14F  
GREAT FALLS SUNNY 80 30 16 W10 30.15F  
CALGARY MOSUNNY 73 43 33 S3 30.07F  
 
CLICK HERE TO GO TO PREVIOUS BULLETINS.

The Nexlab WA Page
The Nexlab ID Page Main Text Page